STARLINK-32263 (60371 NORAD) Tracking and Keplerian Element Data

This shows tracking and keplerian element data for the satellite.

Feedback or suggestion? Click here.




ElementValue
Catalog60371
NameSTARLINK-32263
Epoch Orbit1193
Epoch Day286.84984702
Epoch Year2024
RAAN177.0852
Inclination53.1589
Eccentricity7.91E-05
Argument of Perigee73.966
Mean Anonmoly286.1432
Mean Motion15.39633517
Decay Rate6.575E-05
L11 60371U 24138S 24286.84984702 .00006575 00000+0 17414-3 0 9991
L22 60371 53.1589 177.0852 0000791 73.9660 286.1432 15.39633517 11931



Live tracking and technical data element details for STARLINK-32263 (NORAD 60371). STARLINK-32263 can be tracked NOW for your location showing map with azimuth and elevation plus other details from your city location.







IsCatalogInMostPopularTable: catalog: 60371, numindb: 7
Update: records affected: 1



GetName: 60371 STARLINK-32263

Hit Count: updated at: Fri, 06 Dec 2024 12:02:19 GMT